Regional Weather Roundup
Issued by NWS Grand Forks, ND

Home | Current Version | Previous Version | Graphics & Text | Print | Product List | Glossary On
Versions: 1 2 3 4 5 6 7 8 9 10 11 12 13 14 15 16 17 18 19 20 21 22 23 24 25 26 27 28 29 30 31 32 33 34 35 36 37 38 39 40 41 42 43 44 45 46 47 48 49 50
000
ASUS43 KFGF 010110
RWRFGF
PRAIRIE TO PINES  WEATHER ROUNDUP
NATIONAL WEATHER SERVICE EASTERN NORTH DAKOTA/GRAND FORKS ND
800 PM CDT MON AUG 31 2015

 **SATELLITE DATA USED TO AUGMENT SKY COVER AT AUTOMATED STATIONS**
 *****  WEATHER ACROSS EASTERN NORTH DAKOTA  *****

CITY           SKY/WX    TMP DP  RH WIND       PRES   REMARKS
GRAND FORKS    CLOUDY    71  60  68 SW5       29.80F
GRAND FRKS AFB CLOUDY    72  60  65 SW5       29.81F
GRAND FRKS NWS   N/A     72 N/A N/A W2          N/A
DEVILS LAKE    PTCLDY    72  46  40 W7        29.83S
FARGO          CLOUDY    77  66  68 S6        29.82S
WAHPETON ARPT  CLOUDY    73  63  68 N5        29.83R
$$

 ***** WEATHER ACROSS CENTRAL AND WESTERN NORTH DAKOTA  *****

CITY           SKY/WX    TMP DP  RH WIND       PRES   REMARKS
BISMARCK       CLEAR     78  44  29 NW5       29.87S
MINOT          CLEAR     73  40  30 W6        29.83S
JAMESTOWN      CLOUDY    71  57  61 S5        29.85F
MINOT AFB      CLEAR     75  42  30 SW8       29.82R HAZE
GARRISON         N/A     71  47  42 SW3       29.86F
WILLISTON      CLEAR     75  36  24 W9        29.84S
DICKINSON      CLEAR     73  43  33 W3        29.88F
HETTINGER      CLEAR     74  44  34 S3        29.92S
$$

 *****  OTHER AIRPORT OBSERVATIONS IN OUR AREA  *****

CITY           SKY/WX    TMP DP  RH WIND       PRES   REMARKS
WALHALLA       FAIR      73  45  35 MISG      29.79R
GRAFTON AIRPOR FAIR      73  52  46 W8        29.80R
VALLEY CITY AR FAIR      68  64  88 W5        29.86S
CANDO          NOT AVBL
CAVALIER APRT  FAIR      72  46  40 SW5       29.79R
GWINNER          N/A     72  70  94 SW3       29.85S
SHEYENNE NWR     N/A     74  66  75 CALM      29.95S
ROLLA          FAIR      64  46  52 W7        29.84R
 ***** THE ABOVE OBSERVATIONS ARE NON NWS ARE NOT QUALITY
       CONTROLLED AND MAY MIS-REPORT RAIN FOR SNOW...
$$

  *****  WEATHER ACROSS NORTHERN MINNESOTA  *****

CITY           SKY/WX    TMP DP  RH WIND       PRES   REMARKS
FLAG ISLAND    MOCLDY    72  64  78 SW7       29.77S
WARROAD        CLOUDY    70  66  88 S3        29.80S
ROSEAU         CLOUDY    72  64  78 S5        29.79S
HALLOCK        MOCLDY    72  52  49 SW7       29.78R
THF RVR FALLS  CLOUDY   N/A N/A N/A W8        29.82R
BAUDETTE       CLOUDY    69  65  86 SW5       29.80S
WASKISH        CLOUDY    70  66  88 CALM      29.82S
CROOKSTON      CLOUDY    73  57  56 W8        29.82S
STEPHEN NDAWN    N/A     72  61  68 SW7         N/A
GREENBUSH NDAW   N/A     72  59  64 SW5         N/A
$$
  *****  WEATHER ACROSS CENTRAL AND WEST MINNESOTA  *****

CITY           SKY/WX    TMP DP  RH WIND       PRES   REMARKS
FOSSTON        CLOUDY    68  63  83 CALM      29.84S
BEMIDJI        CLOUDY    73  67  81 CALM      29.83F
PARK RAPIDS    MOCLDY    74  66  76 NW6       29.86R
ELBOW LAKE     FAIR      74  68  82 CALM      29.84F
WADENA         MOCLDY    73  64  73 CALM      29.85S
DETROIT LAKES  DRIZZLE   72  66  83 CALM      29.86F
MOORHEAD       CLOUDY    75  66  73 CALM      29.83S
FERGUS FALLS   MOCLDY    73  66  78 CALM      29.81F
MORRIS MN      PTCLDY    73  68  83 NW3       29.84S
STAPLES        MOCLDY    75  68  78 W7        29.85R
$$
  *****  WEATHER ELSEWHERE ACROSS MINNESOTA  *****

CITY           SKY/WX    TMP DP  RH WIND       PRES   REMARKS
DULUTH         PTCLDY    75  69  81 SW7       29.88R
INTRNTL FALLS  MOCLDY    70  65  84 SW5       29.81R
ELY            MOCLDY    75  64  69 SW6       29.84R
CLOQUET        CLEAR     75  66  73 SW3       29.87S
WHEATON        CLOUDY    72  66  83 CALM      29.84S
BRAINERD       MOCLDY    76  68  76 S6        29.85S
HIBBING        MOCLDY    76  67  73 VRB5      29.84S
ALEXANDRIA     PTCLDY    75  67  76 NW6       29.87R
SAINT CLOUD    PTCLDY    75  68  78 S7        29.87R
MINNEAPOLIS    PTCLDY    82  70  66 VRB7      29.88F
$$

  *****  WEATHER ACROSS SOUTH DAKOTA  *****

CITY           SKY/WX    TMP DP  RH WIND       PRES   REMARKS
SIOUX FALLS    CLOUDY    78  70  76 S12       29.87R
BROOKINGS      PTCLDY    77  70  78 S7        29.88S
WATERTOWN      MOCLDY    75  65  70 CALM      29.85F
HURON          MOCLDY    73  67  81 NW6       29.85S
SISSETON         N/A     73  67  81 NW6       29.84R
ABERDEEN       MOCLDY    70  64  81 CALM      29.87R
MITCHELL       MOCLDY    76  69  79 NE5       29.84F
PIERRE         CLOUDY    74  63  68 E3        29.88S
MOBRIDGE       PTCLDY    69  62  78 NE5       29.87S
RAPID CITY     MOCLDY    69  59  70 CALM      29.94F
$$

  *****  SOME WEATHER IN NEARBY STATES *****

CITY           SKY/WX    TMP DP  RH WIND       PRES   REMARKS
GLASGOW MT     PTCLDY    70  41  34 S8        29.82F
GREAT FALLS MT SUNNY     73  35  25 SW16      29.87S
CHEYENNE WY    CLOUDY    68  51  54 SW7       30.16F
SCOTTSBLUFF NE LGT RAIN  69  58  67 SW13      30.04R
OMAHA NE       PTCLDY    80  69  69 SE6       29.90S
DES MOINES IA  PTCLDY    81  71  71 S6        29.92S
DAVENPORT IA   CLEAR     76  72  87 SE5       29.98S
CHICAGO IL     PTCLDY    78  68  71 E3        30.01S
EAU CLAIRE WI  CLEAR     76  70  82 S6        29.92S
LA CROSSE WI   CLEAR     78  70  76 SE8       29.93S
$$

  *****  SOME NATIONAL WEATHER *****

CITY           SKY/WX    TMP DP  RH WIND       PRES   REMARKS
LA GUARDIA NY  MOCLDY    88  64  44 W13       29.96R
RALEIGH NC     FAIR      72  70  93 CALM      30.08R
ATLANTA GA     PTCLDY    76  67  73 CALM      30.09R
NEW ORLEANS LA MOCLDY    83  70  64 S7        30.02R
OKLAHOMA CITY  PTCLDY    84  63  49 SE8       29.96R
ALBUQUERQUE NM CLOUDY    82  46  28 NW16      30.11R
SALT LAKE CITY MOSUNNY   86  41  20 N8        29.96F
LOS ANGELES CA MOSUNNY   73  63  70 W13       29.85F
BOISE ID       PTSUNNY   81  39  22 NW7       29.90F
SEATTLE WA     LGT RAIN  63  58  83 SW9       29.94S
$$

*** WEATHER ACROSS MANITOBA...SASKATCHEWAN AND ONTARIO ***
                ***ONTARIO***

CITY           SKY/WX    TMP DP  RH WIND       PRES   REMARKS
GERALDTON      MOCLDY    66  59  77 S12G22    29.79S FOG
THUNDER BAY    CLOUDY    72  64  78 SW7       29.81R
SIOUX LOOKOUT  MOCLDY    70  64  83 W7        29.76R
TORONTO        CLEAR     77  68  73 N8        30.02R
BIG TROUT LK   CLOUDY    63  61  94 W7        29.50F
PICKLE LAKE    MOCLDY    68  64  88 SW9       29.67S
DRYDEN         CLEAR     68  64  88 SW9       29.77R
KENORA         MOCLDY    70  64  83 SW7       29.78R
$$
                *** MANITOBA***

CITY           SKY/WX    TMP DP  RH WIND       PRES   REMARKS
BRANDON        MOCLDY    68  46  45 W10       29.77R
DAUPHIN        CLEAR     70  50  49 W9        29.68R
ISLAND LAKE    PTCLDY    64  61  88 SW6       29.55R
PILOT MOUND      N/A     66  45  45 W7          N/A
THE PAS        MOCLDY    70  54  56 S5        29.53S
THOMPSON       DRIZZLE   57  57 100 CALM      29.52R
WINNIPEG       PTCLDY    70  48  46 SW9       29.75R
LYNN LAKE      MOCLDY    61  57  88 MISG      29.52R
CHURCHILL      CLOUDY    48  45  87 E14       29.59S
GILLAM         CLOUDY    50  50 100 N9        29.52R
$$
                ***SASKATCHEWAN***

CITY           SKY/WX    TMP DP  RH WIND       PRES   REMARKS
ESTEVAN        MOCLDY    70  41  35 W6        29.81R
KINDERSLEY     MOCLDY    70  41  35 SW8       29.67R
LLOYDMINSTER   PTCLDY    68  45  42 SW6       29.62S
PRINCE ALBERT  PTCLDY    72  45  37 W9        29.60R
REGINA         MOCLDY    66  50  55 W5        29.73F
YORKTON        CLEAR     68  48  49 SW9       29.71R
N. BATTLEFORD  CLEAR     70  43  37 NW5       29.64R
LA RONGE       NOT AVBL
SASKATOON      MOCLDY    72  43  35 SW8       29.66S
SWIFT CURRENT  CLEAR     68  41  37 W15G21    29.74R HAZE
$$
NOTE: THESE ARE AUTOMATED STATIONS WITH LIMITED QUALITY CONTROL
      "FAIR" INDICATES FEW OR NO CLOUDS BELOW 12,000 FEET WITH NO
      SIGNIFICANT WEATHER AND/OR OBSTRUCTIONS TO VISIBILITY.
      SKY/WX - SKY CONDITION AND SIGNIFICANT WEATHER.
      TMP - AIR TEMPERATURE.    DP   - DEWPOINT TEMPERATURE.
      RH  - RELATIVE HUMIDITY.  PRES - PRESSURE.
      HX  - HEAT INDEX.         WCI  - WIND CHILL INDEX.
$


USA.gov is the U.S. government's official web portal to all federal, state and local government web resources and services.